Location: Unspecified
(0.0000°N, 0.0000°E)
Time: 18:17:51
(UTC+00:00)

Vanguard 2 Rocket - Pass Details

Date: 26 January 2020
Orbit: 554 x 3327 km, 32.9° (Epoch: 20 February)

Event Time Altitude Azimuth Distance (km) Brightness Sun altitude
Rises 13:15:47 0° 294° (WNW) 5,576 11.0 65.6°
Reaches altitude 10° 13:18:58 10° 290° (WNW) 4,883 10.9 65.1°
Maximum altitude 13:34:09 62° 213° (SSW) 3,344 12.8 62.5°
Drops below altitude 10° 13:54:22 10° 136° (SE) 6,227 11.2 58.7°
Sets 13:59:10 0° 132° (SE) 7,119 11.4 57.8°
